This is the latest recevied weather packets stored in our database for station/object WX7EM. If no packets are shown the sender has not sent any weather packets the latest 10 day(s).
| Time | Temp. | Humidity | Pressure | Rain* | Wind** | Luminosity | Snow |
|---|---|---|---|---|---|---|---|
| 1778111649 | 21.11° C | 62% | 1018.9 hPa | 0 mm | - | 124 W/m² | - |
| 1778111344 | 21.11° C | 61% | 1018.8 hPa | 0 mm | - | 77 W/m² | - |
| 1778111042 | 20.56° C | 63% | 1018.9 hPa | 0 mm | - | 74 W/m² | - |
| 1778110739 | 20.56° C | 60% | 1019 hPa | 0 mm | - | 75 W/m² | - |
| 1778110435 | 20.56° C | 62% | 1018.9 hPa | 0 mm | - | 74 W/m² | - |
| 1778110132 | 20° C | 63% | 1019 hPa | 0 mm | - | 79 W/m² | - |
| 1778109828 | 20.56° C | 61% | 1018.9 hPa | 0 mm | - | 90 W/m² | - |
| 1778109524 | 20.56° C | 63% | 1019 hPa | 0 mm | - | 86 W/m² | - |
| 1778109222 | 20.56° C | 62% | 1019 hPa | 0 mm | - | 84 W/m² | - |
| 1778108919 | 20.56° C | 64% | 1019 hPa | 0 mm | - | 90 W/m² | - |
| 1778108616 | 20.56° C | 65% | 1019 hPa | 0 mm | - | 102 W/m² | - |
| 1778108312 | 20.56° C | 64% | 1019 hPa | 0 mm | - | 100 W/m² | - |
| 1778108010 | 20.56° C | 64% | 1019.4 hPa | 0 mm | - | 104 W/m² | - |
| 1778107707 | 20.56° C | 64% | 1019.1 hPa | 0 mm | - | 143 W/m² | - |
| 1778107404 | 20° C | 65% | 1019.5 hPa | 0 mm | - | 122 W/m² | - |
| 1778107100 | 20.56° C | 65% | 1019.5 hPa | 0 mm | - | 116 W/m² | - |
| 1778106795 | 20° C | 66% | 1019.4 hPa | 0 mm | - | 326 W/m² | - |
| 1778106493 | 20.56° C | 66% | 1019.5 hPa | 0 mm | - | 272 W/m² | - |
| 1778106188 | 20.56° C | 66% | 1019.6 hPa | 0 mm | - | 262 W/m² | - |
| 1778105887 | 20° C | 69% | 1019.7 hPa | 0 mm | - | 85 W/m² | - |
| 1778105584 | 20° C | 70% | 1019.5 hPa | 0 mm | - | 150 W/m² | - |
| 1778105281 | 20° C | 71% | 1019.6 hPa | 0 mm | - | 141 W/m² | - |
| 1778104976 | 19.44° C | 68% | 1019.5 hPa | 0 mm | - | 129 W/m² | - |
| 1778104673 | 18.89° C | 71% | 1019.8 hPa | 0 mm | - | 160 W/m² | - |
| 1778104369 | 18.89° C | 72% | 1019.8 hPa | 0 mm | - | 195 W/m² | - |
* Rain latest hour (hover to see other rain measurements)
** Current wind speed in m/s (hover to see current wind gust speed)